Location: Manhattan
(39.1840°N, 96.5710°W)
Time: 03:36:55
(UTC-05:00)

ISS - Visible Passes

Search period start: 24 September 2017 00:00
Search period end: 04 October 2017 00:00
Orbit: 401 x 407 km, 51.6° (Epoch: 24 September)

Date Brightness Start Highest point End Pass type
(mag) Time Alt. Az. Time Alt. Az. Time Alt. Az.
24 Sep -2.1 21:17:57 10° WSW 21:19:46 30° WSW 21:19:46 30° WSW visible
25 Sep -3.8 20:25:43 10° SW 20:28:55 57° SE 20:30:18 29° ENE visible
26 Sep -2.2 21:10:08 10° W 21:13:06 31° NNW 21:13:18 31° NNW visible
27 Sep -3.2 20:17:28 10° WSW 20:20:40 55° NW 20:23:25 13° NE visible
27 Sep -0.3 21:55:56 10° NW 21:56:05 10° NW 21:56:05 10° NW visible
28 Sep -1.4 21:02:43 10° WNW 21:05:06 18° NNW 21:06:03 16° N visible
29 Sep -1.9 20:09:41 10° W 20:12:32 27° NNW 20:15:23 10° NNE visible
30 Sep -1.0 20:55:38 10° NW 20:57:09 13° NNW 20:58:18 11° N visible
01 Oct -1.2 20:02:18 10° WNW 20:04:29 16° NNW 20:06:40 10° NNE visible
02 Oct -0.9 20:49:09 10° N 20:49:16 10° N 20:49:22 10° N visible
03 Oct -1.1 19:55:13 10° NW 19:56:30 12° NNW 19:57:45 10° N visible
